User: anonymous   Login
Location: Bergen
(60.3910°N, 5.3250°E)
Time: 05:11:52
(UTC+01:00)
Language:

Cosmos 1943 - Orbit

View from above orbital plane
View from above orbital plane
View from above satellite
View from above satellite

Ground track
Ground track

The orbit data is extracted from the following two-line orbital elements,

1 19119U 88039A   15027.56726794  .00000348  00000-0  20426-3 0  3468
2 19119 071.0045 132.0575 0013572 298.7870 151.3705 14.14982771378792
Epoch (UTC): 27 January 2015 13:36:51
Eccentricity: 0.0013572
inclination: 71.0045°
perigee height: 832 km
apogee height: 852 km
right ascension of ascending node: 132.0575°
argument of perigee: 298.7870°
revolutions per day: 14.14982771
mean anomaly at epoch: 151.3705°
orbit number at epoch: 37879

The dashed part of the orbit path shows where the satellite is in the earth's shadow,  

DLR